This is the latest recevied weather packets stored in our database for station/object KI4BIY. If no packets are shown the sender has not sent any weather packets the latest 10 day(s).
| Time | Temp. | Humidity | Pressure | Rain* | Wind** | Luminosity | Snow |
|---|---|---|---|---|---|---|---|
| 1778262508 | 23.89° C | 41% | 1013.1 hPa | 0 mm | - | 778 W/m² | - |
| 1778262205 | 23.33° C | 46% | 1013.5 hPa | 0 mm | - | 769 W/m² | - |
| 1778261901 | 23.33° C | 44% | 1013.5 hPa | 0 mm | - | 747 W/m² | - |
| 1778261599 | 23.89° C | 45% | 1013.3 hPa | 0 mm | - | 739 W/m² | - |
| 1778261294 | 23.89° C | 47% | 1014 hPa | 0 mm | - | 695 W/m² | - |
| 1778260992 | 23.89° C | 46% | 1013.8 hPa | 0 mm | - | 741 W/m² | - |
| 1778260688 | 23.33° C | 45% | 1014 hPa | 0 mm | - | 771 W/m² | - |
| 1778260384 | 23.33° C | 52% | 1014 hPa | 0 mm | - | 725 W/m² | - |
| 1778260081 | 23.33° C | 46% | 1014.3 hPa | 0 mm | - | 524 W/m² | - |
| 1778259779 | 23.33° C | 46% | 1014.1 hPa | 0 mm | - | 481 W/m² | - |
| 1778259475 | 23.89° C | 46% | 1014.1 hPa | 0 mm | - | 655 W/m² | - |
| 1778259173 | 23.33° C | 46% | 1014.4 hPa | 0 mm | - | 708 W/m² | - |
| 1778258869 | 22.22° C | 49% | 1014.5 hPa | 0 mm | - | 688 W/m² | - |
| 1778258566 | 22.78° C | 47% | 1014.5 hPa | 0 mm | - | 645 W/m² | - |
| 1778258264 | 22.78° C | 48% | 1014.9 hPa | 0 mm | - | 631 W/m² | - |
| 1778257962 | 22.22° C | 46% | 1014.9 hPa | 0 mm | - | 681 W/m² | - |
| 1778257657 | 22.22° C | 49% | 1014.8 hPa | 0 mm | - | 728 W/m² | - |
| 1778257354 | 22.22° C | 51% | 1014.8 hPa | 0 mm | - | 725 W/m² | - |
| 1778257051 | 22.22° C | 50% | 1014.8 hPa | 0 mm | - | 671 W/m² | - |
| 1778256748 | 22.22° C | 54% | 1014.9 hPa | 0 mm | - | 606 W/m² | - |
| 1778256446 | 22.22° C | 50% | 1015.1 hPa | 0 mm | - | 800 W/m² | - |
| 1778256144 | 21.67° C | 48% | 1014.9 hPa | 0 mm | - | 834 W/m² | - |
| 1778255840 | 21.67° C | 47% | 1015.3 hPa | 0 mm | - | 784 W/m² | - |
| 1778255538 | 21.11° C | 53% | 1015.3 hPa | 0 mm | - | 772 W/m² | - |
| 1778255234 | 21.67° C | 57% | 1015.4 hPa | 0 mm | - | 738 W/m² | - |
* Rain latest hour (hover to see other rain measurements)
** Current wind speed in m/s (hover to see current wind gust speed)